Probability
0 0 0 0 0 0 0 0 0 0 0 0 0 0 0 0 0 0 0 0 0 0 0 0 0 0 0 0 0 0 0 0 0 0 0 0 0 0 0 0 0 0 0
0 0 0 0 0 0 0 0 0 0 0 0 0 0 0 0 0 0 0 0 0 0 0 0 0 0 0 0 0 0 0 0 0 0 0 0 0 0 0 0 0 0 0
0 0 0 0 0 0 0 0 0 0 0 0 0 0 0 0 0 0 0 0 0 0 0 0 0 0 0 0 0 0 0 0 0 0 0 0 0 0 0 0 0 0 0
0 0 0 0 0 0 0 0 0 0 0 0 0 0 0 0 0 0 0 0 0 0 0 0 0 0 0 0 0 0 0 0 0 0 0 0 0 0 0 0 0 0 0
0 0 0 0 0 0 0 0 0 0 0 0 0 0 0 0 0 0 0 0 0 0 0 0 0 0 0 0 0 0 0 0 0 0 0 0 0 0 0 0 0 0 0
0 0 0 0 0 0 0 0 0 0 0 0 0 0 0 0 0 0 0 0 0 0 0 0 0 0 0 0 0 0 0 0 0 0 0 0 0 0 0 0 0 0 0
0 0 0 0 0 0 0 0 0 0 0 0 0 0 0 0 0 0 0 0 0 0 0 0 0 0 0 0 0 0 0 0 0 0 0 0 0 0 0 0 0 0 0
0 0 0 0 0 0 0 0 0 0 0 0 0 0 0 0 0 0 0 0 0 0 0 0 0 0 0 0 0 0 0 0 0 0 0 0 0 0 0 0 0 0 0
0 0 0 0 0 0 0 0 0 0 0 0 0 0 0 0 0 0 0 0 0 0 0 0 0 0 0 0 0 0 0 0 0 0 0 0 0 0 0 0 0 0 0
0 0 0 0 0 0 0 0 0 0 0 0 0 0 0 0 0 0 0 0 0 0 0 0 0 0 0 0 0 0 0 0 0 0 0 0 0 0 0 0 0 0 0
0 0 0 0 0 0 0 0 0 0 0 0 0 0 0 0 0 0 0 0 0 0 0 0 0 0 0 0 0 0 0 0 0 0 0 0 0 0 0 0 0 0 0
0 0 0 0 0 0 0 0 0 0 0 0 0 0 0 0 0 0 0 0 0 0 0 0 0 0 0 0 0 0 0 0 0 0 0 0 0 0 0 0 0 0 0
0 0 0 0 0 0 0 0 0 0 0 0 0 0 0 0 0 0 0 0 0 0 0 0 0 0 0 0 0 0 0 0 0 0 0 0 0 0 0 0 0 0 0
0 0 0 0 0 0 0 0 0 0 0 0 0 0 0 0 0 0 0 0 0 0 0 0 0 0 0 0 0 0 0 0 0 0 0 0 0 0 0 0 0 0 0
0 0 0 0 0 0 0 0 0 0 0 0 0 0 0 0 0 0 0 0 0 0 0 0 0 0 0 0 0 0 0 0 0 0 0 0 0 0 0 0 0 0 0
0 0 0 0 0 0 0 0 0 0 0 0 0 0 0 0 0 0 0 0 0 0 0 0 0 0 0 0 0 0 0 0 0 0 0 0 0 0 0 0 0 0 0
0 0 0 0 0 0 0 0 0 0 0 0 0 0 0 0 0 0 0 0 0 0 0 0 0 0 0 0 0 0 0 0 0 0 0 0 0 0 0 0 0 0 0
0 0 0 0 0 0 0 0 0 0 0 0 0 0 0 0 0 0 0 0 0 0 0 0 0 0 0 0 0 0 0 0 0 0 0 0 0 0 0 0 0 0 0
0 0 0 0 0 0 0 0 0 0 0 0 0 0 0 0 0 0 0 0 0 0 0 0 0 0 0 0 0 0 0 0 0 0 0 0 0 0 0 0 0 0 0
0 0 0 0 0 0 0 0 0 0 0 0 0 0 0 0 0 0 0 0 0 0 0 0 0 0 0 0 0 0 0 0 0 0 0 0 0 0 0 0 0 0 0
0 0 0 0 0 0 0 0 0 0 0 0 0 0 0 0 0 0 0 0 0 0 0 0 0 0 0 0 0 0 0 0 0 0 0 0 0 0 0 0 0 0 0
0 0 0 0 0 0 0 0 0 0 0 0 0 0 0 0 0 0 0 0 0 0 0 0 0 0 0 0 0 0 0 0 0 0 0 0 0 0 0 0 0 0 0
0 0 0 0 0 0 0 0 0 0 0 0 0 0 0 0 0 0 0 0 0 0 0 0 0 0 0 0 0 0 0 0 0 0 0 0 0 0 0 0 0 0 0
0 0 0 0 0 0 0 0 0 0 0 0 0 0 0 0 0 0 0 0 0 0 0 0 0 0 0 0 0 0 0 0 0 0 0 0 0 0 0 0 0 0 0
0 0 0 0 0 0 0 0 0 0 0 0 0 0 0 0 0 0 0 0 0 0 0 0 0 0 0 0 0 0 0 0 0 0 0 0 0 0 0 0 0 0 0
0 0 0 0 0 0 0 0 0 0 0 0 0 0 0 0 0 0 0 0 0 0 0 0 0 0 0 0 0 0 0 0 0 0 0 0 0 0 0 0 0 0 0
Height
5801 5802 5804 5805 5806 5807 5807 5808 5808 5808 5807 5807 5807 5806 5806 5805 5803 5802 5800 5799 5797 5795 5794 5792 5790 5787 5785 5783 5780 5778 5775 5772 5769 5766 5763 5760 5757 5753 5749 5746 5742 5739 5735
5794 5796 5797 5798 5799 5800 5801 5801 5802 5801 5801 5801 5801 5800 5799 5798 5797 5796 5794 5793 5791 5789 5787 5786 5784 5781 5779 5776 5774 5771 5768 5765 5762 5759 5756 5754 5751 5746 5743 5739 5735 5731 5727
5787 5789 5790 5791 5793 5794 5794 5795 5795 5795 5795 5794 5794 5793 5792 5791 5791 5789 5788 5786 5785 5783 5781 5779 5777 5775 5773 5770 5767 5764 5762 5759 5755 5751 5748 5745 5743 5739 5736 5731 5727 5723 5719
5779 5781 5783 5784 5785 5787 5787 5787 5788 5788 5788 5787 5787 5786 5786 5785 5784 5783 5781 5779 5778 5776 5774 5772 5770 5768 5766 5763 5760 5757 5754 5751 5748 5744 5740 5737 5733 5730 5727 5724 5719 5715 5710
5771 5773 5775 5777 5778 5779 5779 5780 5780 5781 5781 5780 5780 5779 5779 5778 5776 5776 5774 5772 5771 5769 5767 5765 5763 5761 5758 5756 5753 5750 5747 5744 5740 5736 5732 5728 5724 5720 5717 5714 5711 5706 5701
5763 5764 5766 5768 5769 5770 5771 5772 5772 5773 5773 5773 5772 5772 5771 5770 5769 5768 5767 5765 5764 5762 5760 5758 5756 5753 5751 5748 5745 5742 5739 5735 5732 5728 5724 5720 5716 5712 5707 5704 5700 5696 5692
5754 5756 5758 5760 5761 5762 5763 5764 5764 5765 5765 5765 5764 5764 5763 5762 5761 5760 5759 5758 5756 5754 5752 5750 5748 5746 5743 5740 5737 5734 5731 5727 5723 5719 5715 5711 5707 5702 5698 5693 5690 5686 5682
5744 5747 5749 5750 5752 5753 5754 5755 5756 5756 5756 5757 5756 5756 5755 5754 5753 5752 5751 5750 5748 5746 5744 5742 5740 5737 5735 5732 5729 5726 5722 5718 5714 5710 5706 5702 5697 5692 5688 5683 5678 5675 5672
5735 5737 5739 5741 5743 5744 5745 5746 5747 5747 5748 5748 5748 5747 5746 5746 5745 5744 5743 5741 5740 5738 5736 5734 5732 5729 5726 5723 5720 5717 5713 5709 5705 5701 5697 5692 5688 5683 5678 5672 5667 5663 5659
5725 5727 5730 5731 5733 5735 5736 5737 5738 5738 5739 5739 5739 5738 5738 5737 5736 5735 5734 5733 5731 5729 5728 5725 5723 5720 5717 5714 5711 5708 5704 5700 5696 5691 5687 5682 5677 5672 5667 5662 5656 5651 5646
5715 5718 5720 5722 5723 5724 5726 5727 5728 5729 5729 5729 5729 5729 5729 5728 5727 5726 5725 5724 5722 5721 5719 5716 5714 5711 5708 5705 5701 5698 5694 5690 5686 5681 5677 5672 5667 5662 5657 5651 5645 5639 5633
5705 5707 5709 5711 5713 5714 5716 5717 5718 5719 5719 5720 5719 5719 5719 5718 5718 5717 5716 5714 5713 5711 5709 5707 5704 5701 5698 5695 5692 5688 5684 5680 5676 5671 5666 5661 5656 5651 5645 5640 5634 5627 5621
5695 5697 5699 5701 5703 5704 5706 5707 5707 5709 5709 5710 5709 5709 5709 5709 5708 5707 5706 5705 5703 5702 5699 5697 5694 5691 5688 5685 5681 5678 5674 5669 5665 5660 5655 5650 5645 5640 5634 5628 5621 5615 5608
5684 5686 5689 5691 5692 5694 5695 5696 5697 5698 5699 5699 5699 5699 5699 5699 5698 5697 5696 5695 5693 5692 5689 5687 5684 5681 5678 5674 5671 5667 5663 5659 5654 5649 5644 5639 5633 5628 5622 5615 5609 5602 5595
5673 5675 5678 5679 5681 5682 5684 5685 5686 5687 5688 5688 5689 5689 5689 5688 5688 5687 5686 5684 5683 5681 5679 5676 5673 5670 5667 5664 5660 5656 5652 5647 5643 5638 5633 5627 5621 5615 5609 5602 5596 5589 5582
5662 5665 5666 5668 5670 5671 5673 5674 5675 5676 5677 5678 5678 5678 5678 5678 5677 5676 5675 5674 5672 5670 5668 5666 5663 5659 5656 5653 5649 5645 5640 5636 5631 5626 5621 5615 5609 5603 5596 5589 5582 5575 5567
5650 5652 5654 5656 5659 5660 5661 5663 5664 5665 5666 5667 5667 5667 5667 5667 5666 5665 5664 5663 5661 5659 5657 5654 5651 5648 5645 5641 5637 5633 5628 5624 5619 5614 5608 5603 5596 5590 5583 5576 5569 5561 5552
5638 5640 5642 5645 5647 5648 5650 5651 5653 5654 5655 5656 5656 5656 5656 5656 5655 5654 5653 5652 5650 5648 5646 5643 5640 5637 5633 5629 5625 5621 5616 5612 5607 5601 5596 5590 5583 5576 5570 5563 5555 5547 5539
5626 5628 5630 5632 5635 5637 5638 5640 5641 5642 5643 5644 5645 5645 5645 5644 5644 5643 5642 5641 5639 5637 5634 5631 5628 5625 5621 5617 5613 5609 5604 5600 5594 5589 5582 5576 5570 5563 5556 5549 5542 5534 5526
5614 5616 5619 5621 5623 5625 5626 5628 5630 5631 5632 5633 5633 5633 5633 5633 5632 5631 5630 5629 5627 5625 5622 5620 5617 5613 5610 5605 5601 5596 5592 5587 5582 5576 5570 5563 5556 5549 5542 5534 5527 5520 5512
5602 5604 5607 5609 5611 5613 5615 5616 5618 5620 5621 5621 5621 5622 5621 5621 5620 5619 5618 5617 5615 5613 5611 5608 5605 5601 5597 5593 5588 5584 5579 5574 5569 5563 5557 5550 5543 5536 5528 5520 5513 5505 5497
5590 5592 5595 5597 5599 5601 5603 5605 5606 5608 5608 5609 5609 5610 5609 5609 5608 5607 5606 5605 5603 5601 5598 5595 5592 5589 5585 5580 5576 5571 5566 5560 5555 5550 5543 5536 5529 5522 5514 5506 5498 5491 5482
5578 5581 5583 5585 5587 5589 5591 5593 5594 5595 5596 5597 5597 5598 5597 5597 5596 5595 5594 5592 5590 5588 5586 5583 5580 5576 5572 5568 5563 5558 5553 5547 5542 5536 5529 5523 5515 5508 5500 5492 5484 5476 5468
5566 5569 5571 5574 5576 5577 5579 5581 5582 5582 5583 5584 5585 5585 5585 5585 5584 5583 5581 5580 5578 5575 5573 5570 5567 5564 5559 5555 5550 5545 5540 5534 5528 5522 5516 5509 5501 5494 5486 5478 5470 5462 5453
5555 5557 5559 5561 5564 5566 5567 5568 5569 5570 5571 5572 5573 5573 5573 5572 5572 5571 5569 5567 5565 5563 5560 5557 5554 5550 5546 5542 5537 5532 5526 5521 5515 5509 5502 5495 5488 5480 5472 5464 5456 5447 5438
5542 5545 5547 5549 5551 5553 5555 5556 5557 5558 5559 5560 5560 5560 5560 5560 5559 5558 5556 5554 5552 5550 5547 5544 5541 5537 5533 5528 5523 5518 5513 5507 5501 5495 5488 5481 5474 5466 5458 5450 5441 5432 5423
Wind_Speed
31 31 30 29 29 28 28 28 27 27 27 26 27 27 27 27 27 27 27 27 27 27 27 27 28 28 29 29 30 31 31 32 33 33 34 34 35 36 36 37 37 38 38
33 33 32 31 30 30 29 29 29 28 28 28 28 28 28 28 28 28 28 28 28 28 28 28 28 29 29 30 31 31 32 33 34 34 35 35 35 36 37 37 38 38 39
35 34 34 33 32 31 31 31 30 29 29 29 30 30 30 29 29 30 29 29 29 29 29 29 29 30 30 30 31 32 33 34 35 35 36 37 36 37 37 38 39 39 40
36 36 35 35 34 33 32 32 32 31 30 31 31 30 30 30 31 30 30 30 30 30 30 30 31 31 31 31 32 33 34 35 35 36 37 38 39 39 38 38 39 40 41
37 37 36 36 35 34 34 33 33 32 32 32 32 31 32 32 32 31 31 31 31 31 31 31 32 32 32 32 33 34 35 36 36 37 38 39 40 40 41 40 41 41 42
38 37 37 36 36 35 35 34 34 34 33 33 33 32 33 33 32 32 32 32 32 31 32 32 32 33 33 34 34 35 36 37 38 38 39 40 41 41 42 43 43 43 43
39 38 38 37 37 36 36 36 35 35 34 34 33 33 34 34 33 33 33 33 32 32 32 33 33 34 34 35 36 37 37 38 39 39 40 41 42 43 44 45 45 45 45
40 39 39 39 38 37 37 37 36 35 35 34 34 34 34 34 34 33 33 33 33 33 33 34 34 35 35 36 37 37 38 39 40 41 42 42 43 44 45 46 47 47 46
39 39 39 39 39 38 38 37 37 37 36 35 35 35 35 35 34 34 34 34 34 34 35 35 35 36 37 37 38 38 39 40 41 42 43 43 44 45 46 47 48 49 49
39 39 39 39 39 39 39 39 38 38 38 37 36 36 36 36 36 35 35 35 36 36 36 36 37 37 38 38 39 40 41 41 42 43 44 44 45 47 48 49 49 51 52
39 39 39 39 40 40 39 39 39 39 38 38 38 37 37 37 36 36 36 36 37 37 37 38 38 39 39 39 40 41 42 42 43 44 45 46 47 48 49 50 51 52 54
40 40 40 40 40 40 40 40 40 40 39 39 39 38 37 37 37 37 37 38 38 38 39 39 40 40 40 40 41 42 43 44 44 45 46 47 47 48 50 51 52 53 55
40 40 41 41 41 41 41 41 41 41 41 40 39 39 38 38 38 38 38 38 39 39 40 40 41 41 41 41 42 43 44 45 46 46 47 47 48 50 51 52 53 54 55
41 41 40 40 41 42 42 42 42 42 41 40 40 40 39 39 39 39 39 39 40 40 41 41 42 42 42 42 43 44 45 46 46 47 47 49 50 51 52 53 54 55 56
41 41 41 40 41 42 42 42 42 41 41 41 41 40 40 40 40 40 40 40 40 41 42 42 42 42 43 43 44 44 45 46 47 48 49 50 51 52 53 54 55 57 57
43 42 41 41 42 42 42 42 42 41 41 41 41 40 40 40 40 40 41 41 42 42 42 42 42 43 43 44 44 45 46 46 48 49 50 51 52 53 54 55 57 58 59
44 44 44 43 42 42 42 42 42 41 41 41 40 40 40 40 40 41 41 42 42 42 43 43 43 43 44 44 45 46 47 48 49 50 51 52 53 54 55 56 57 58 59
44 44 45 44 42 42 42 42 42 41 41 41 41 40 40 40 41 41 41 42 43 43 43 43 43 44 44 45 46 47 48 49 50 51 52 53 54 55 56 57 58 59 60
43 43 44 44 42 42 42 42 42 42 42 42 41 41 41 41 42 42 42 42 43 43 43 43 44 44 45 46 47 48 49 50 51 52 53 53 54 55 57 58 59 59 60
43 42 42 43 43 42 43 43 42 42 42 42 41 41 42 42 42 43 43 43 43 44 44 44 45 45 46 47 48 49 50 51 51 52 53 54 55 56 58 59 59 60 60
43 41 41 42 42 42 43 43 42 42 41 42 42 41 42 42 43 43 43 43 44 44 45 45 46 46 47 48 49 49 50 51 51 52 54 55 56 57 58 59 59 60 60
44 42 41 41 42 42 42 42 42 41 41 41 42 42 41 42 42 43 44 44 44 45 45 46 46 47 48 48 49 50 51 51 52 53 55 56 57 58 59 59 60 60 61
43 42 41 41 41 41 41 41 41 41 41 42 42 42 42 42 42 44 44 45 45 45 46 46 46 47 48 49 50 51 51 52 53 54 55 56 57 58 59 59 60 61 62
41 42 42 41 41 41 41 41 41 41 42 42 42 42 42 42 43 43 44 44 44 45 45 46 47 47 48 49 50 51 52 53 54 55 56 57 58 59 59 59 61 62 63
42 43 42 42 41 41 41 41 42 41 41 41 42 42 42 43 43 43 43 43 44 45 46 47 47 48 49 50 51 52 52 53 54 55 56 57 57 58 58 60 61 62 62
41 42 42 42 41 41 41 41 41 41 41 40 41 41 42 42 43 43 43 44 45 45 46 46 47 48 49 50 50 51 52 53 54 55 56 57 57 58 59 60 61 61 61
Wind_Direction
256 259 260 262 265 267 270 272 275 277 278 281 283 286 287 288 289 290 292 295 296 298 300 300 302 303 304 305 306 307 308 309 309 309 309 310 310 309 309 309 308 307 306
255 258 261 263 264 267 269 271 274 276 277 280 282 284 285 286 287 289 291 293 294 296 297 298 300 301 302 304 305 306 307 308 308 309 309 309 309 309 309 308 307 306 305
255 258 260 263 264 266 269 270 273 275 277 279 280 282 283 285 287 288 290 292 292 294 295 296 297 299 301 302 304 305 306 307 308 308 309 310 310 309 309 308 307 306 305
256 257 259 261 263 265 267 270 272 274 276 278 280 281 282 284 286 288 289 289 291 293 294 294 296 298 300 301 303 304 305 306 307 307 308 309 309 309 309 308 307 306 305
257 258 259 260 262 264 266 268 271 273 275 277 279 280 281 283 285 286 287 288 290 291 292 293 295 297 299 300 302 304 304 305 306 306 307 308 308 308 308 308 307 306 305
257 258 259 260 261 264 265 267 270 272 274 276 278 279 280 282 284 286 287 288 289 290 291 292 294 296 297 299 301 302 303 304 305 306 306 307 307 307 307 307 307 306 305
258 259 259 260 262 263 265 266 268 271 273 275 276 278 279 281 283 284 286 287 288 289 290 291 293 295 297 299 300 301 302 304 305 305 306 306 306 307 307 306 306 306 306
259 259 260 261 261 263 265 266 267 270 272 274 275 277 279 280 282 284 285 286 287 288 289 290 292 294 296 298 299 301 302 303 304 304 305 305 305 306 306 306 306 306 306
258 259 259 260 261 262 264 266 268 269 271 273 274 276 278 279 281 283 284 285 286 287 288 290 291 293 295 297 298 300 301 302 303 303 304 304 305 305 306 306 306 306 306
257 258 258 259 260 262 264 266 268 269 270 272 274 275 276 278 279 281 283 284 285 286 288 289 291 292 294 296 298 299 301 301 302 302 303 304 305 305 306 306 306 305 306
256 256 257 258 260 261 264 266 268 269 270 271 273 275 276 277 278 280 282 283 284 286 288 289 291 292 294 296 297 299 300 301 301 302 303 304 304 305 306 306 306 306 306
257 257 257 259 260 262 263 265 267 268 270 272 273 274 276 277 278 280 281 282 284 286 288 289 291 292 293 295 297 298 300 300 301 302 302 303 304 305 305 306 306 306 306
259 259 259 260 261 262 264 265 266 268 270 272 273 273 274 276 277 279 280 282 283 285 287 289 291 292 293 295 297 298 299 300 301 301 302 303 304 305 305 305 306 306 306
259 260 261 262 262 263 263 264 266 267 268 270 272 273 273 275 276 278 279 281 283 285 287 289 290 291 293 295 297 298 299 300 301 302 303 304 304 305 305 305 306 306 306
260 261 262 263 263 263 263 264 265 266 268 269 271 273 273 274 275 277 279 281 283 285 287 289 290 292 294 295 296 298 299 300 301 302 303 304 304 305 306 306 306 306 307
260 260 261 262 262 263 264 264 265 266 267 269 270 272 273 274 275 277 279 281 283 285 287 289 290 292 294 295 296 298 299 300 301 302 303 304 305 305 306 306 306 307 307
260 260 261 261 262 263 264 264 264 265 267 268 270 272 273 274 275 277 279 281 283 285 287 288 290 292 294 295 296 298 299 300 301 302 303 303 304 305 306 306 307 307 307
259 259 259 260 261 261 262 262 263 265 266 268 270 271 272 274 275 277 279 281 283 285 288 289 291 292 294 295 297 298 299 300 301 302 303 303 304 305 306 306 307 308 308
257 257 257 258 258 260 261 262 263 264 266 268 270 270 272 273 275 277 280 282 284 286 288 289 291 292 294 295 297 298 299 300 302 303 303 304 305 306 306 307 308 308 309
256 255 255 256 257 258 261 261 262 264 266 268 269 270 272 273 275 277 279 281 283 285 287 289 291 292 294 295 297 298 299 301 302 303 304 305 306 307 307 308 308 309 309
256 254 254 255 257 258 259 261 262 263 265 267 268 270 272 274 276 278 280 282 284 286 287 289 291 293 295 296 297 298 299 301 302 304 305 306 307 307 308 308 309 309 309
255 254 255 255 256 257 259 260 261 262 264 266 268 270 272 275 277 278 280 282 284 286 288 289 291 293 295 296 297 299 300 302 303 304 305 306 307 307 308 308 309 309 310
254 255 256 257 257 258 259 260 261 262 264 266 267 269 272 274 276 278 280 282 284 286 287 289 291 293 294 296 298 299 300 302 303 304 306 306 307 308 308 309 309 310 311
254 254 255 258 259 259 260 261 262 263 264 266 267 270 272 274 276 278 281 283 285 286 287 289 291 293 295 296 298 299 300 302 303 304 306 306 307 308 309 310 310 311 311
255 255 257 258 259 260 261 262 263 264 266 268 269 270 272 274 276 278 280 283 285 286 288 290 292 293 295 297 298 299 301 302 303 305 306 307 308 309 310 310 311 311 311
255 256 256 257 257 259 261 262 263 265 267 268 269 270 272 275 277 279 281 283 285 287 288 290 292 294 296 297 299 300 301 303 304 305 307 308 309 310 310 311 311 312 312